Time,TemperatureF,DewpointF,PressureIn,WindDirection,WindDirectionDegrees,WindSpeedMPH,WindSpeedGustMPH,Humidity,HourlyPrecipIn,Conditions,Clouds,dailyrainin,SoftwareType,DateUTC
2013-04-25 00:02:00,37.3,29.1,30.12,West,270,0.0,1.1,72,0.00,,,0.00,WUHU216HW,2013-04-25 05:02:00,
2013-04-25 00:07:00,37.1,28.9,30.12,West,270,0.0,0.4,72,0.00,,,0.00,WUHU216HW,2013-04-25 05:07:00,
2013-04-25 00:12:00,36.7,28.5,30.12,West,270,0.0,0.4,72,0.00,,,0.00,WUHU216HW,2013-04-25 05:12:00,
2013-04-25 00:17:00,36.4,28.5,30.12,West,270,0.2,0.7,73,0.00,,,0.00,WUHU216HW,2013-04-25 05:17:00,
2013-04-25 00:22:00,36.4,28.5,30.12,West,270,0.0,0.7,73,0.00,,,0.00,WUHU216HW,2013-04-25 05:22:00,
2013-04-25 00:27:00,36.0,28.2,30.12,West,270,0.0,0.7,73,0.00,,,0.00,WUHU216HW,2013-04-25 05:27:00,
2013-04-25 00:32:00,35.8,28.0,30.12,West,270,0.0,0.0,73,0.00,,,0.00,WUHU216HW,2013-04-25 05:32:00,
2013-04-25 00:37:00,35.6,27.8,30.12,West,270,0.0,0.0,73,0.00,,,0.00,WUHU216HW,2013-04-25 05:37:00,
2013-04-25 00:42:00,35.1,27.3,30.12,West,270,0.0,0.0,73,0.00,,,0.00,WUHU216HW,2013-04-25 05:42:00,
2013-04-25 00:47:00,34.7,26.9,30.12,West,270,0.0,0.0,73,0.00,,,0.00,WUHU216HW,2013-04-25 05:47:00,
2013-04-25 00:52:00,34.6,26.7,30.12,West,270,0.0,0.0,73,0.00,,,0.00,WUHU216HW,2013-04-25 05:52:00,
2013-04-25 00:57:00,34.2,26.4,30.12,West,270,0.0,0.0,73,0.00,,,0.00,WUHU216HW,2013-04-25 05:57:00,
2013-04-25 01:02:00,33.8,26.0,30.12,West,270,0.0,0.0,73,0.00,,,0.00,WUHU216HW,2013-04-25 06:02:00,
2013-04-25 01:07:00,33.8,26.0,30.12,West,270,0.0,0.0,73,0.00,,,0.00,WUHU216HW,2013-04-25 06:07:00,
2013-04-25 01:12:00,33.8,26.0,30.12,West,270,0.0,0.0,73,0.00,,,0.00,WUHU216HW,2013-04-25 06:12:00,
2013-04-25 01:17:00,33.5,26.0,30.12,West,270,0.0,0.0,74,0.00,,,0.00,WUHU216HW,2013-04-25 06:17:00,
2013-04-25 01:22:00,33.1,25.7,30.12,West,270,0.0,0.0,74,0.00,,,0.00,WUHU216HW,2013-04-25 06:22:00,
2013-04-25 01:27:00,32.8,25.4,30.12,West,270,0.0,0.0,74,0.00,,,0.00,WUHU216HW,2013-04-25 06:27:00,
2013-04-25 01:32:00,32.6,25.2,30.12,West,270,0.0,0.0,74,0.00,,,0.00,WUHU216HW,2013-04-25 06:32:00,
2013-04-25 01:37:00,32.6,25.2,30.12,West,270,0.0,0.0,74,0.00,,,0.00,WUHU216HW,2013-04-25 06:37:00,
2013-04-25 01:42:00,32.8,25.4,30.12,West,270,0.0,0.0,74,0.00,,,0.00,WUHU216HW,2013-04-25 06:42:00,
2013-04-25 01:47:00,32.4,25.0,30.12,West,270,0.0,0.0,74,0.00,,,0.00,WUHU216HW,2013-04-25 06:47:00,
2013-04-25 01:52:00,32.2,24.8,30.12,West,270,0.0,0.0,74,0.00,,,0.00,WUHU216HW,2013-04-25 06:52:00,
2013-04-25 01:57:00,32.0,24.7,30.12,West,270,0.0,0.0,74,0.00,,,0.00,WUHU216HW,2013-04-25 06:57:00,
2013-04-25 02:02:00,31.9,24.5,30.12,West,270,0.0,0.0,74,0.00,,,0.00,WUHU216HW,2013-04-25 07:02:00,
2013-04-25 02:07:00,31.7,24.3,30.12,West,270,0.0,0.0,74,0.00,,,0.00,WUHU216HW,2013-04-25 07:07:00,
2013-04-25 02:12:00,31.3,23.9,30.12,West,270,0.0,0.0,74,0.00,,,0.00,WUHU216HW,2013-04-25 07:12:00,
2013-04-25 02:17:00,31.3,23.9,30.12,West,270,0.0,0.0,74,0.00,,,0.00,WUHU216HW,2013-04-25 07:17:00,
2013-04-25 02:22:00,31.1,23.8,30.12,West,270,0.0,0.0,74,0.00,,,0.00,WUHU216HW,2013-04-25 07:22:00,
2013-04-25 02:27:00,31.0,23.6,30.12,West,270,0.0,0.0,74,0.00,,,0.00,WUHU216HW,2013-04-25 07:27:00,
2013-04-25 02:32:00,31.0,23.6,30.12,West,270,0.0,0.0,74,0.00,,,0.00,WUHU216HW,2013-04-25 07:32:00,
2013-04-25 02:37:00,30.8,23.4,30.12,West,270,0.0,0.0,74,0.00,,,0.00,WUHU216HW,2013-04-25 07:37:00,
2013-04-25 02:42:00,30.6,23.2,30.12,West,270,0.0,0.0,74,0.00,,,0.00,WUHU216HW,2013-04-25 07:42:00,
2013-04-25 02:47:00,30.6,23.2,30.12,West,270,0.0,0.0,74,0.00,,,0.00,WUHU216HW,2013-04-25 07:47:00,
2013-04-25 02:52:00,30.6,23.2,30.12,West,270,0.0,0.0,74,0.00,,,0.00,WUHU216HW,2013-04-25 07:52:00,
2013-04-25 02:57:00,30.4,23.0,30.12,West,270,0.0,0.0,74,0.00,,,0.00,WUHU216HW,2013-04-25 07:57:00,
2013-04-25 03:02:00,30.2,22.6,30.12,West,270,0.0,0.0,73,0.00,,,0.00,WUHU216HW,2013-04-25 08:02:00,
2013-04-25 03:07:00,30.4,22.8,30.12,West,270,0.0,0.0,73,0.00,,,0.00,WUHU216HW,2013-04-25 08:07:00,
2013-04-25 03:12:00,30.6,23.0,30.12,West,270,0.0,0.0,73,0.00,,,0.00,WUHU216HW,2013-04-25 08:12:00,
2013-04-25 03:17:00,30.4,22.8,30.12,West,270,0.0,0.0,73,0.00,,,0.00,WUHU216HW,2013-04-25 08:17:00,
2013-04-25 03:22:00,30.1,22.4,30.12,West,270,0.0,0.0,73,0.00,,,0.00,WUHU216HW,2013-04-25 08:22:00,
2013-04-25 03:27:00,29.7,22.1,30.12,West,270,0.0,0.0,73,0.00,,,0.00,WUHU216HW,2013-04-25 08:27:00,
2013-04-25 03:32:00,29.7,22.1,30.12,West,270,0.0,0.0,73,0.00,,,0.00,WUHU216HW,2013-04-25 08:32:00,
2013-04-25 03:37:00,29.5,22.2,30.12,West,270,0.0,0.0,74,0.00,,,0.00,WUHU216HW,2013-04-25 08:37:00,
2013-04-25 03:42:00,29.3,22.1,30.12,West,270,0.0,0.0,74,0.00,,,0.00,WUHU216HW,2013-04-25 08:42:00,
2013-04-25 03:47:00,29.2,21.9,30.12,West,270,0.0,0.0,74,0.00,,,0.00,WUHU216HW,2013-04-25 08:47:00,
2013-04-25 03:52:00,29.3,21.8,30.12,West,270,0.0,0.0,73,0.00,,,0.00,WUHU216HW,2013-04-25 08:52:00,
2013-04-25 03:57:00,29.2,21.9,30.12,West,270,0.0,0.0,74,0.00,,,0.00,WUHU216HW,2013-04-25 08:57:00,
2013-04-25 04:02:00,29.0,21.7,30.12,West,270,0.0,0.0,74,0.00,,,0.00,WUHU216HW,2013-04-25 09:02:00,
2013-04-25 04:07:00,28.8,21.5,30.12,West,270,0.0,0.0,74,0.00,,,0.00,WUHU216HW,2013-04-25 09:07:00,
2013-04-25 04:12:00,28.8,21.5,30.12,West,270,0.0,0.0,74,0.00,,,0.00,WUHU216HW,2013-04-25 09:12:00,
2013-04-25 04:17:00,28.6,21.3,30.12,West,270,0.0,0.0,74,0.00,,,0.00,WUHU216HW,2013-04-25 09:17:00,
2013-04-25 04:22:00,28.4,21.3,30.12,West,270,0.0,0.0,74,0.00,,,0.00,WUHU216HW,2013-04-25 09:22:00,
2013-04-25 04:27:00,28.4,20.9,30.12,West,270,0.0,0.0,73,0.00,,,0.00,WUHU216HW,2013-04-25 09:27:00,
2013-04-25 04:32:00,28.4,20.9,30.12,West,270,0.0,0.2,73,0.00,,,0.00,WUHU216HW,2013-04-25 09:32:00,
2013-04-25 04:37:00,28.3,21.1,30.13,West,270,0.0,0.2,74,0.00,,,0.00,WUHU216HW,2013-04-25 09:37:00,
2013-04-25 04:42:00,28.1,20.5,30.13,West,270,0.4,1.1,73,0.00,,,0.00,WUHU216HW,2013-04-25 09:42:00,
2013-04-25 04:47:00,28.3,20.7,30.13,West,270,0.0,1.1,73,0.00,,,0.00,WUHU216HW,2013-04-25 09:47:00,
2013-04-25 04:51:00,28.4,20.9,30.13,WSW,248,1.1,1.1,73,0.00,,,0.00,WUHU216HW,2013-04-25 09:51:00,
2013-04-25 04:56:00,28.8,20.9,30.13,SW,225,1.3,1.8,72,0.00,,,0.00,WUHU216HW,2013-04-25 09:56:00,
2013-04-25 05:01:00,29.3,20.8,30.13,SSW,203,0.4,2.0,70,0.00,,,0.00,WUHU216HW,2013-04-25 10:01:00,
2013-04-25 05:06:00,30.1,21.1,30.13,WSW,248,1.8,2.2,69,0.00,,,0.00,WUHU216HW,2013-04-25 10:06:00,
2013-04-25 05:11:00,30.4,21.1,30.14,WSW,248,0.0,2.2,68,0.00,,,0.00,WUHU216HW,2013-04-25 10:11:00,
2013-04-25 05:16:00,30.6,21.6,30.14,WSW,248,0.4,1.8,69,0.00,,,0.00,WUHU216HW,2013-04-25 10:16:00,
2013-04-25 05:21:00,31.0,21.6,30.14,SW,225,0.7,2.0,68,0.00,,,0.00,WUHU216HW,2013-04-25 10:21:00,
2013-04-25 05:26:00,31.0,22.0,30.14,SW,225,1.1,2.0,69,0.00,,,0.00,WUHU216HW,2013-04-25 10:26:00,
2013-04-25 05:31:00,31.1,22.5,30.14,SW,225,0.4,2.9,70,0.00,,,0.00,WUHU216HW,2013-04-25 10:31:00,
2013-04-25 05:36:00,31.0,22.7,30.14,SW,225,0.0,2.9,71,0.00,,,0.00,WUHU216HW,2013-04-25 10:36:00,
2013-04-25 05:41:00,30.8,22.5,30.14,SW,225,0.0,0.9,71,0.00,,,0.00,WUHU216HW,2013-04-25 10:41:00,
2013-04-25 05:46:00,30.6,22.6,30.14,SW,225,0.0,0.7,72,0.00,,,0.00,WUHU216HW,2013-04-25 10:46:00,
2013-04-25 05:51:00,30.4,22.4,30.14,WSW,248,1.8,1.8,72,0.00,,,0.00,WUHU216HW,2013-04-25 10:51:00,
2013-04-25 05:56:00,30.6,22.6,30.14,SW,225,0.0,2.2,72,0.00,,,0.00,WUHU216HW,2013-04-25 10:56:00,
2013-04-25 06:01:00,30.4,22.4,30.15,SW,225,0.7,2.2,72,0.00,,,0.00,WUHU216HW,2013-04-25 11:01:00,
2013-04-25 06:06:00,30.4,22.4,30.15,SW,225,0.2,1.8,72,0.00,,,0.00,WUHU216HW,2013-04-25 11:06:00,
2013-04-25 06:11:00,30.4,22.4,30.14,SW,225,0.0,1.8,72,0.00,,,0.00,WUHU216HW,2013-04-25 11:11:00,
2013-04-25 06:16:00,30.1,22.4,30.14,SW,225,0.0,0.2,73,0.00,,,0.00,WUHU216HW,2013-04-25 11:16:00,
2013-04-25 06:21:00,29.9,22.2,30.14,SW,225,0.4,1.1,73,0.00,,,0.00,WUHU216HW,2013-04-25 11:21:00,
2013-04-25 06:26:00,29.9,22.0,30.14,SW,225,0.9,2.0,72,0.00,,,0.00,WUHU216HW,2013-04-25 11:26:00,
2013-04-25 06:31:00,30.2,22.2,30.14,SW,225,1.8,2.0,72,0.00,,,0.00,WUHU216HW,2013-04-25 11:31:00,
2013-04-25 06:36:00,30.4,22.2,30.14,SW,225,0.7,2.0,71,0.00,,,0.00,WUHU216HW,2013-04-25 11:36:00,
2013-04-25 06:41:00,30.6,22.3,30.15,SW,225,2.5,2.5,71,0.00,,,0.00,WUHU216HW,2013-04-25 11:41:00,
2013-04-25 06:46:00,31.1,22.9,30.15,SW,225,0.2,2.5,71,0.00,,,0.00,WUHU216HW,2013-04-25 11:46:00,
2013-04-25 06:51:00,31.7,23.0,30.14,SW,225,0.4,2.5,70,0.00,,,0.00,WUHU216HW,2013-04-25 11:51:00,
2013-04-25 06:56:00,32.8,24.0,30.15,SW,225,0.0,1.6,70,0.00,,,0.00,WUHU216HW,2013-04-25 11:56:00,
2013-04-25 07:01:00,33.8,25.0,30.15,SW,225,0.4,0.9,70,0.00,,,0.00,WUHU216HW,2013-04-25 12:01:00,
2013-04-25 07:06:00,35.3,26.8,30.16,SW,225,0.9,1.1,71,0.00,,,0.00,WUHU216HW,2013-04-25 12:06:00,
2013-04-25 07:11:00,36.7,28.3,30.16,SW,225,0.0,2.0,71,0.00,,,0.00,WUHU216HW,2013-04-25 12:11:00,
2013-04-25 07:16:00,38.2,30.0,30.16,SW,225,1.8,2.5,72,0.00,,,0.00,WUHU216HW,2013-04-25 12:16:00,
2013-04-25 07:21:00,39.2,31.2,30.16,SW,225,1.8,2.5,73,0.00,,,0.00,WUHU216HW,2013-04-25 12:21:00,
2013-04-25 07:26:00,40.3,32.0,30.16,SW,225,0.0,2.5,72,0.00,,,0.00,WUHU216HW,2013-04-25 12:26:00,
2013-04-25 07:31:00,41.6,33.2,30.16,West,270,1.6,2.5,72,0.00,,,0.00,WUHU216HW,2013-04-25 12:31:00,
2013-04-25 07:36:00,42.5,33.9,30.17,SSW,203,1.6,2.7,71,0.00,,,0.00,WUHU216HW,2013-04-25 12:36:00,
2013-04-25 07:41:00,43.0,34.0,30.17,WSW,248,0.9,4.0,70,0.00,,,0.00,WUHU216HW,2013-04-25 12:41:00,
2013-04-25 07:47:00,43.4,34.7,30.17,WSW,248,2.5,4.3,71,0.00,,,0.00,WUHU216HW,2013-04-25 12:47:00,
2013-04-25 07:51:00,42.5,33.1,30.17,SW,225,1.3,4.3,69,0.00,,,0.00,WUHU216HW,2013-04-25 12:51:00,
2013-04-25 07:56:00,41.6,32.2,30.17,SW,225,1.1,3.4,69,0.00,,,0.00,WUHU216HW,2013-04-25 12:56:00,
2013-04-25 08:01:00,41.0,31.7,30.17,WSW,248,1.8,4.0,69,0.00,,,0.00,WUHU216HW,2013-04-25 13:01:00,
2013-04-25 08:06:00,41.2,32.2,30.17,SW,225,2.9,4.0,70,0.00,,,0.00,WUHU216HW,2013-04-25 13:06:00,
2013-04-25 08:11:00,41.4,32.4,30.17,South,180,1.8,3.1,70,0.00,,,0.00,WUHU216HW,2013-04-25 13:11:00,
2013-04-25 08:16:00,41.9,33.3,30.17,WNW,293,0.9,3.6,71,0.00,,,0.00,WUHU216HW,2013-04-25 13:16:00,
2013-04-25 08:22:00,42.5,33.5,30.17,SW,225,0.9,4.0,70,0.00,,,0.00,WUHU216HW,2013-04-25 13:22:00,
2013-04-25 08:27:00,42.8,33.5,30.17,West,270,1.6,4.0,69,0.00,,,0.00,WUHU216HW,2013-04-25 13:27:00,
2013-04-25 08:32:00,43.2,34.2,30.17,SW,225,0.7,4.0,70,0.00,,,0.00,WUHU216HW,2013-04-25 13:32:00,
2013-04-25 08:37:00,43.6,33.8,30.17,SSW,203,1.1,4.0,68,0.00,,,0.00,WUHU216HW,2013-04-25 13:37:00,
2013-04-25 08:42:00,44.3,34.4,30.17,SSW,203,0.9,4.0,68,0.00,,,0.00,WUHU216HW,2013-04-25 13:42:00,
2013-04-25 08:47:00,44.6,34.3,30.17,WSW,248,1.8,5.8,67,0.00,,,0.00,WUHU216HW,2013-04-25 13:47:00,
2013-04-25 08:52:00,45.0,33.9,30.17,West,270,0.9,5.8,65,0.00,,,0.00,WUHU216HW,2013-04-25 13:52:00,
2013-04-25 08:57:00,45.5,34.5,30.17,SSW,203,3.4,5.4,65,0.00,,,0.00,WUHU216HW,2013-04-25 13:57:00,
2013-04-25 09:02:00,45.7,33.9,30.18,SW,225,2.9,5.4,63,0.00,,,0.00,WUHU216HW,2013-04-25 14:02:00,
2013-04-25 09:06:00,46.4,34.5,30.17,SSW,203,4.9,4.9,63,0.00,,,0.00,WUHU216HW,2013-04-25 14:06:00,
2013-04-25 09:11:00,47.2,34.8,30.18,SSE,158,2.5,5.4,62,0.00,,,0.00,WUHU216HW,2013-04-25 14:11:00,
2013-04-25 09:16:00,48.6,35.8,30.17,WSW,248,2.2,5.4,61,0.00,,,0.00,WUHU216HW,2013-04-25 14:16:00,
2013-04-25 09:21:00,50.8,38.2,30.17,SSW,203,1.8,4.7,62,0.00,,,0.00,WUHU216HW,2013-04-25 14:21:00,
2013-04-25 09:26:00,52.2,37.4,30.17,WNW,293,1.8,4.5,57,0.00,,,0.00,WUHU216HW,2013-04-25 14:26:00,
2013-04-25 09:32:00,53.1,39.2,30.17,SW,225,1.8,3.4,59,0.00,,,0.00,WUHU216HW,2013-04-25 14:32:00,
2013-04-25 09:37:00,54.4,38.0,30.17,South,180,2.7,5.8,54,0.00,,,0.00,WUHU216HW,2013-04-25 14:37:00,
2013-04-25 09:42:00,55.1,36.7,30.17,SSW,203,3.1,5.8,50,0.00,,,0.00,WUHU216HW,2013-04-25 14:42:00,
2013-04-25 09:47:00,55.4,38.0,30.17,SSW,203,1.6,4.9,52,0.00,,,0.00,WUHU216HW,2013-04-25 14:47:00,
2013-04-25 09:52:00,56.0,37.6,30.17,West,270,3.6,4.9,50,0.00,,,0.00,WUHU216HW,2013-04-25 14:52:00,
2013-04-25 09:57:00,56.5,39.1,30.17,West,270,1.3,3.8,52,0.00,,,0.00,WUHU216HW,2013-04-25 14:57:00,
2013-04-25 10:02:00,56.9,36.8,30.17,WSW,248,5.1,5.4,47,0.00,,,0.00,WUHU216HW,2013-04-25 15:02:00,
2013-04-25 10:07:00,57.1,37.0,30.17,SW,225,1.6,5.4,47,0.00,,,0.00,WUHU216HW,2013-04-25 15:07:00,
2013-04-25 10:12:00,57.4,37.9,30.17,West,270,1.3,5.1,48,0.00,,,0.00,WUHU216HW,2013-04-25 15:12:00,
2013-04-25 10:17:00,57.8,38.3,30.17,SW,225,2.2,4.9,48,0.00,,,0.00,WUHU216HW,2013-04-25 15:17:00,
2013-04-25 10:22:00,58.3,38.2,30.17,SSW,203,2.0,5.1,47,0.00,,,0.00,WUHU216HW,2013-04-25 15:22:00,
2013-04-25 10:27:00,59.2,39.0,30.17,WSW,248,2.5,5.8,47,0.00,,,0.00,WUHU216HW,2013-04-25 15:27:00,
2013-04-25 10:32:00,60.1,38.6,30.17,SW,225,1.8,5.8,45,0.00,,,0.00,WUHU216HW,2013-04-25 15:32:00,
2013-04-25 10:37:00,60.3,38.2,30.17,SSW,203,5.4,5.4,44,0.00,,,0.00,WUHU216HW,2013-04-25 15:37:00,
2013-04-25 10:42:00,60.5,37.8,30.16,ESE,113,4.9,7.6,43,0.00,,,0.00,WUHU216HW,2013-04-25 15:42:00,
2013-04-25 10:47:00,60.1,37.4,30.17,WSW,248,3.1,8.1,43,0.00,,,0.00,WUHU216HW,2013-04-25 15:47:00,
2013-04-25 10:52:00,60.7,37.9,30.16,SW,225,4.5,8.1,43,0.00,,,0.00,WUHU216HW,2013-04-25 15:52:00,
2013-04-25 10:57:00,61.0,38.8,30.16,South,180,4.3,7.8,44,0.00,,,0.00,WUHU216HW,2013-04-25 15:57:00,
2013-04-25 11:02:00,61.7,38.9,30.16,SW,225,2.0,7.8,43,0.00,,,0.00,WUHU216HW,2013-04-25 16:02:00,
2013-04-25 11:07:00,62.1,36.8,30.16,WNW,293,6.7,7.8,39,0.00,,,0.00,WUHU216HW,2013-04-25 16:07:00,
2013-04-25 11:12:00,62.3,36.9,30.16,SSE,158,2.0,8.9,39,0.00,,,0.00,WUHU216HW,2013-04-25 16:12:00,
2013-04-25 11:17:00,62.3,38.3,30.16,SW,225,1.6,8.9,41,0.00,,,0.00,WUHU216HW,2013-04-25 16:17:00,
2013-04-25 11:22:00,63.2,37.7,30.15,West,270,4.3,7.2,39,0.00,,,0.00,WUHU216HW,2013-04-25 16:22:00,
2013-04-25 11:27:00,63.7,37.5,30.15,South,180,5.4,7.2,38,0.00,,,0.00,WUHU216HW,2013-04-25 16:27:00,
2013-04-25 11:32:00,64.1,36.4,30.15,SSW,203,3.1,9.8,36,0.00,,,0.00,WUHU216HW,2013-04-25 16:32:00,
2013-04-25 11:37:00,64.4,38.9,30.15,SSE,158,3.1,9.8,39,0.00,,,0.00,WUHU216HW,2013-04-25 16:37:00,
2013-04-25 11:42:00,64.1,34.9,30.15,SSE,158,4.3,8.1,34,0.00,,,0.00,WUHU216HW,2013-04-25 16:42:00,
2013-04-25 11:47:00,63.9,35.6,30.15,WSW,248,4.9,8.3,35,0.00,,,0.00,WUHU216HW,2013-04-25 16:47:00,
2013-04-25 11:52:00,64.1,34.9,30.15,WNW,293,6.9,10.1,34,0.00,,,0.00,WUHU216HW,2013-04-25 16:52:00,
2013-04-25 11:57:00,63.7,33.9,30.15,ESE,113,6.3,10.1,33,0.00,,,0.00,WUHU216HW,2013-04-25 16:57:00,
2013-04-25 12:02:00,64.1,33.5,30.14,SW,225,6.9,9.4,32,0.00,,,0.00,WUHU216HW,2013-04-25 17:02:00,
2013-04-25 12:07:00,64.4,34.6,30.14,SSE,158,5.4,8.9,33,0.00,,,0.00,WUHU216HW,2013-04-25 17:07:00,
2013-04-25 12:12:00,64.4,33.8,30.14,SSW,203,8.5,8.9,32,0.00,,,0.00,WUHU216HW,2013-04-25 17:12:00,
2013-04-25 12:17:00,64.3,34.4,30.14,SW,225,6.3,8.5,33,0.00,,,0.00,WUHU216HW,2013-04-25 17:17:00,
2013-04-25 12:22:00,64.4,35.3,30.14,SSW,203,7.4,8.9,34,0.00,,,0.00,WUHU216HW,2013-04-25 17:22:00,
2013-04-25 12:27:00,64.8,34.9,30.13,NNW,338,5.8,9.2,33,0.00,,,0.00,WUHU216HW,2013-04-25 17:27:00,
2013-04-25 12:32:00,64.8,34.9,30.13,ESE,113,4.5,9.2,33,0.00,,,0.00,WUHU216HW,2013-04-25 17:32:00,
2013-04-25 12:37:00,65.3,35.4,30.13,SSW,203,5.8,7.2,33,0.00,,,0.00,WUHU216HW,2013-04-25 17:37:00,
2013-04-25 12:42:00,65.2,34.5,30.12,WSW,248,2.9,9.2,32,0.00,,,0.00,WUHU216HW,2013-04-25 17:42:00,
2013-04-25 12:47:00,65.0,34.3,30.12,SSW,203,4.0,9.8,32,0.00,,,0.00,WUHU216HW,2013-04-25 17:47:00,
2013-04-25 12:52:00,65.0,34.3,30.12,North,0,6.7,9.8,32,0.00,,,0.00,WUHU216HW,2013-04-25 17:52:00,
2013-04-25 12:57:00,65.3,36.1,30.11,ESE,113,4.5,6.9,34,0.00,,,0.00,WUHU216HW,2013-04-25 17:57:00,
2013-04-25 13:02:00,65.5,35.6,30.11,SE,135,2.5,7.4,33,0.00,,,0.00,WUHU216HW,2013-04-25 18:02:00,
2013-04-25 13:07:00,65.7,35.7,30.11,South,180,5.8,7.4,33,0.00,,,0.00,WUHU216HW,2013-04-25 18:07:00,
2013-04-25 13:12:00,65.7,35.0,30.11,South,180,3.8,8.5,32,0.00,,,0.00,WUHU216HW,2013-04-25 18:12:00,
2013-04-25 13:17:00,65.9,36.5,30.10,South,180,2.9,8.5,34,0.00,,,0.00,WUHU216HW,2013-04-25 18:17:00,
2013-04-25 13:22:00,66.1,36.7,30.10,SSE,158,3.1,6.0,34,0.00,,,0.00,WUHU216HW,2013-04-25 18:22:00,
2013-04-25 13:27:00,66.1,36.7,30.10,SSW,203,2.5,6.0,34,0.00,,,0.00,WUHU216HW,2013-04-25 18:27:00,
2013-04-25 13:32:00,66.1,36.7,30.09,South,180,5.4,6.0,34,0.00,,,0.00,WUHU216HW,2013-04-25 18:32:00,
2013-04-25 13:37:00,66.2,35.5,30.09,SSE,158,7.4,11.9,32,0.00,,,0.00,WUHU216HW,2013-04-25 18:37:00,
2013-04-25 13:42:00,66.2,35.5,30.09,SW,225,4.7,11.9,32,0.00,,,0.00,WUHU216HW,2013-04-25 18:42:00,
2013-04-25 13:47:00,66.2,35.5,30.09,SE,135,5.8,10.5,32,0.00,,,0.00,WUHU216HW,2013-04-25 18:47:00,
2013-04-25 13:52:00,66.4,36.4,30.09,SSE,158,4.5,7.6,33,0.00,,,0.00,WUHU216HW,2013-04-25 18:52:00,
2013-04-25 13:57:00,67.0,35.3,30.08,SW,225,6.9,8.5,31,0.00,,,0.00,WUHU216HW,2013-04-25 18:57:00,
2013-04-25 14:02:00,67.1,36.2,30.08,SW,225,3.1,9.8,32,0.00,,,0.00,WUHU216HW,2013-04-25 19:02:00,
2013-04-25 14:07:00,67.3,35.7,30.07,SSW,203,12.3,12.3,31,0.00,,,0.00,WUHU216HW,2013-04-25 19:07:00,
2013-04-25 14:12:00,67.3,35.7,30.07,SSW,203,4.7,12.3,31,0.00,,,0.00,WUHU216HW,2013-04-25 19:12:00,
2013-04-25 14:17:00,67.5,36.5,30.07,SSE,158,3.4,12.3,32,0.00,,,0.00,WUHU216HW,2013-04-25 19:17:00,
2013-04-25 14:22:00,68.0,36.9,30.06,SW,225,4.7,9.2,32,0.00,,,0.00,WUHU216HW,2013-04-25 19:22:00,
2013-04-25 14:27:00,68.4,36.6,30.06,SW,225,5.1,6.9,31,0.00,,,0.00,WUHU216HW,2013-04-25 19:27:00,
2013-04-25 14:32:00,68.8,36.8,30.06,SW,225,6.9,7.6,31,0.00,,,0.00,WUHU216HW,2013-04-25 19:32:00,
2013-04-25 14:37:00,68.8,36.1,30.06,SSW,203,6.9,7.6,30,0.00,,,0.00,WUHU216HW,2013-04-25 19:37:00,
2013-04-25 14:42:00,68.9,37.7,30.05,SSW,203,4.0,7.6,32,0.00,,,0.00,WUHU216HW,2013-04-25 19:42:00,
2013-04-25 14:47:00,69.1,37.2,30.05,South,180,4.5,7.4,31,0.00,,,0.00,WUHU216HW,2013-04-25 19:47:00,
2013-04-25 14:52:00,69.5,38.3,30.05,ESE,113,7.4,8.3,32,0.00,,,0.00,WUHU216HW,2013-04-25 19:52:00,
2013-04-25 14:57:00,69.5,38.3,30.04,SW,225,3.8,9.2,32,0.00,,,0.00,WUHU216HW,2013-04-25 19:57:00,
2013-04-25 15:02:00,69.7,36.9,30.04,NNW,338,5.4,9.2,30,0.00,,,0.00,WUHU216HW,2013-04-25 20:02:00,
2013-04-25 15:07:00,69.5,36.7,30.03,WSW,248,5.4,12.8,30,0.00,,,0.00,WUHU216HW,2013-04-25 20:07:00,
2013-04-25 15:12:00,69.7,35.9,30.03,South,180,8.9,12.8,29,0.00,,,0.00,WUHU216HW,2013-04-25 20:12:00,
2013-04-25 15:17:00,69.7,36.9,30.03,SSE,158,4.0,13.9,30,0.00,,,0.00,WUHU216HW,2013-04-25 20:17:00,
2013-04-25 15:22:00,69.7,35.9,30.02,SSE,158,7.2,13.9,29,0.00,,,0.00,WUHU216HW,2013-04-25 20:22:00,
2013-04-25 15:27:00,69.8,37.1,30.02,SW,225,5.1,9.8,30,0.00,,,0.00,WUHU216HW,2013-04-25 20:27:00,
2013-04-25 15:32:00,70.4,37.5,30.01,SSE,158,7.2,8.5,30,0.00,,,0.00,WUHU216HW,2013-04-25 20:32:00,
2013-04-25 15:37:00,70.6,35.7,30.01,SSW,203,9.2,13.2,28,0.00,,,0.00,WUHU216HW,2013-04-25 20:37:00,
2013-04-25 15:42:00,70.6,37.7,30.01,SSE,158,5.4,13.2,30,0.00,,,0.00,WUHU216HW,2013-04-25 20:42:00,
2013-04-25 15:47:00,71.1,38.3,30.01,SW,225,4.7,9.2,30,0.00,,,0.00,WUHU216HW,2013-04-25 20:47:00,
2013-04-25 15:52:00,70.9,37.0,30.01,South,180,12.1,12.1,29,0.00,,,0.00,WUHU216HW,2013-04-25 20:52:00,
2013-04-25 15:57:00,70.4,37.5,30.01,NNE,23,6.3,12.3,30,0.00,,,0.00,WUHU216HW,2013-04-25 20:57:00,
2013-04-25 16:02:00,70.2,37.5,30.01,WSW,248,5.1,12.3,30,0.00,,,0.00,WUHU216HW,2013-04-25 21:02:00,
2013-04-25 16:07:00,70.2,37.5,30.01,WSW,248,6.9,9.8,30,0.00,,,0.00,WUHU216HW,2013-04-25 21:07:00,
2013-04-25 16:12:00,70.2,37.5,30.01,South,180,8.5,9.8,30,0.00,,,0.00,WUHU216HW,2013-04-25 21:12:00,
2013-04-25 16:17:00,70.2,36.4,30.00,SE,135,7.6,16.8,29,0.00,,,0.00,WUHU216HW,2013-04-25 21:17:00,
2013-04-25 16:22:00,70.0,38.7,30.00,South,180,5.4,16.8,32,0.00,,,0.00,WUHU216HW,2013-04-25 21:22:00,
2013-04-25 16:27:00,70.0,38.7,30.00,SSW,203,4.7,9.2,32,0.00,,,0.00,WUHU216HW,2013-04-25 21:27:00,
2013-04-25 16:32:00,70.0,37.3,30.00,SW,225,9.8,10.7,30,0.00,,,0.00,WUHU216HW,2013-04-25 21:32:00,
2013-04-25 16:37:00,70.2,37.5,29.99,West,270,6.3,10.7,30,0.00,,,0.00,WUHU216HW,2013-04-25 21:37:00,
2013-04-25 16:42:00,70.6,37.7,29.99,SW,225,5.8,10.3,30,0.00,,,0.00,WUHU216HW,2013-04-25 21:42:00,
2013-04-25 16:47:00,71.1,37.2,29.99,SSW,203,6.3,10.3,29,0.00,,,0.00,WUHU216HW,2013-04-25 21:47:00,
2013-04-25 16:52:00,71.3,37.4,29.99,SW,225,6.9,9.8,29,0.00,,,0.00,WUHU216HW,2013-04-25 21:52:00,
2013-04-25 16:57:00,71.5,36.5,29.98,West,270,4.5,9.6,28,0.00,,,0.00,WUHU216HW,2013-04-25 21:57:00,
2013-04-25 17:02:00,71.6,37.7,29.98,SSW,203,6.5,10.5,29,0.00,,,0.00,WUHU216HW,2013-04-25 22:02:00,
2013-04-25 17:07:00,71.1,36.2,29.98,SW,225,8.1,15.2,28,0.00,,,0.00,WUHU216HW,2013-04-25 22:07:00,
2013-04-25 17:12:00,71.1,37.2,29.98,SSE,158,8.3,15.2,29,0.00,,,0.00,WUHU216HW,2013-04-25 22:12:00,
2013-04-25 17:17:00,71.1,36.2,29.97,SSE,158,7.2,10.3,28,0.00,,,0.00,WUHU216HW,2013-04-25 22:17:00,
2013-04-25 17:22:00,70.7,35.8,29.97,South,180,7.6,13.2,28,0.00,,,0.00,WUHU216HW,2013-04-25 22:22:00,
2013-04-25 17:27:00,70.7,36.9,29.97,SSW,203,7.2,13.2,29,0.00,,,0.00,WUHU216HW,2013-04-25 22:27:00,
2013-04-25 18:00:00,70.2,36.4,29.96,South,180,6.3,6.3,29,0.00,,,0.00,WUHU216HW,2013-04-25 23:00:00,
2013-04-25 18:05:00,70.0,35.2,29.96,SW,225,8.1,10.5,28,0.00,,,0.00,WUHU216HW,2013-04-25 23:05:00,
2013-04-25 18:10:00,69.8,36.1,29.96,South,180,4.3,13.2,29,0.00,,,0.00,WUHU216HW,2013-04-25 23:10:00,
2013-04-25 18:15:00,69.7,36.9,29.96,SSE,158,6.5,13.2,30,0.00,,,0.00,WUHU216HW,2013-04-25 23:15:00,
2013-04-25 18:20:00,69.7,35.9,29.96,SSW,203,5.4,9.2,29,0.00,,,0.00,WUHU216HW,2013-04-25 23:20:00,
2013-04-25 18:25:00,69.7,36.9,29.96,SW,225,4.3,9.2,30,0.00,,,0.00,WUHU216HW,2013-04-25 23:25:00,
2013-04-25 18:30:00,69.7,36.9,29.96,SSE,158,7.4,9.2,30,0.00,,,0.00,WUHU216HW,2013-04-25 23:30:00,
2013-04-25 18:35:00,69.3,37.4,29.96,SE,135,10.1,10.1,31,0.00,,,0.00,WUHU216HW,2013-04-25 23:35:00,
2013-04-25 18:40:00,69.1,37.9,29.96,SSW,203,3.6,10.1,32,0.00,,,0.00,WUHU216HW,2013-04-25 23:40:00,
2013-04-25 18:45:00,69.1,37.2,29.95,South,180,6.3,11.4,31,0.00,,,0.00,WUHU216HW,2013-04-25 23:45:00,
2013-04-25 18:50:00,68.8,37.6,29.95,South,180,4.3,11.4,32,0.00,,,0.00,WUHU216HW,2013-04-25 23:50:00,
2013-04-25 18:55:00,68.6,38.2,29.95,West,270,5.1,8.9,33,0.00,,,0.00,WUHU216HW,2013-04-25 23:55:00,
2013-04-25 19:00:00,68.2,37.1,29.95,SSE,158,5.4,8.5,32,0.00,,,0.00,WUHU216HW,2013-04-26 00:00:00,
2013-04-25 19:05:00,68.2,37.1,29.95,South,180,6.9,8.5,32,0.00,,,0.00,WUHU216HW,2013-04-26 00:05:00,
2013-04-25 19:10:00,68.0,37.7,29.95,SW,225,4.5,8.5,33,0.00,,,0.00,WUHU216HW,2013-04-26 00:10:00,
2013-04-25 19:15:00,67.7,37.4,29.95,SE,135,11.4,11.4,33,0.00,,,0.00,WUHU216HW,2013-04-26 00:15:00,
2013-04-25 19:20:00,67.5,38.0,29.95,South,180,4.0,11.4,34,0.00,,,0.00,WUHU216HW,2013-04-26 00:20:00,
2013-04-25 19:25:00,67.3,37.8,29.94,South,180,2.9,9.2,34,0.00,,,0.00,WUHU216HW,2013-04-26 00:25:00,
2013-04-25 19:30:00,67.0,38.3,29.94,SSE,158,6.9,6.9,35,0.00,,,0.00,WUHU216HW,2013-04-26 00:30:00,
2013-04-25 19:35:00,66.6,37.2,29.94,SSW,203,3.1,6.9,34,0.00,,,0.00,WUHU216HW,2013-04-26 00:35:00,
2013-04-25 19:40:00,66.2,36.9,29.94,SSE,158,8.1,8.1,34,0.00,,,0.00,WUHU216HW,2013-04-26 00:40:00,
2013-04-25 19:45:00,65.9,38.0,29.94,SSW,203,4.3,8.1,36,0.00,,,0.00,WUHU216HW,2013-04-26 00:45:00,
2013-04-25 19:50:00,65.5,37.7,29.94,South,180,6.0,8.1,36,0.00,,,0.00,WUHU216HW,2013-04-26 00:50:00,
2013-04-25 19:55:00,65.0,37.9,29.94,SSW,203,4.5,6.9,37,0.00,,,0.00,WUHU216HW,2013-04-26 00:55:00,
2013-04-25 20:00:00,64.6,37.6,29.95,West,270,7.6,7.6,37,0.00,,,0.00,WUHU216HW,2013-04-26 01:00:00,
2013-04-25 20:05:00,64.3,37.3,29.95,SW,225,5.6,7.6,37,0.00,,,0.00,WUHU216HW,2013-04-26 01:05:00,
2013-04-25 20:10:00,63.9,37.7,29.95,SE,135,4.3,7.4,38,0.00,,,0.00,WUHU216HW,2013-04-26 01:10:00,
2013-04-25 20:15:00,63.5,37.4,29.95,SSW,203,3.8,6.7,38,0.00,,,0.00,WUHU216HW,2013-04-26 01:15:00,
2013-04-25 20:20:00,63.2,37.7,29.95,SSW,203,3.8,5.6,39,0.00,,,0.00,WUHU216HW,2013-04-26 01:20:00,
2013-04-25 20:25:00,62.8,37.5,29.95,SSE,158,4.7,7.2,39,0.00,,,0.00,WUHU216HW,2013-04-26 01:25:00,
2013-04-25 20:30:00,62.6,37.3,29.95,SSE,158,3.6,7.8,39,0.00,,,0.00,WUHU216HW,2013-04-26 01:30:00,
2013-04-25 20:35:00,62.3,37.6,29.96,SSE,158,6.3,7.8,40,0.00,,,0.00,WUHU216HW,2013-04-26 01:35:00,
2013-04-25 20:40:00,61.9,37.4,29.95,East,90,5.8,6.9,40,0.00,,,0.00,WUHU216HW,2013-04-26 01:40:00,
2013-04-25 20:45:00,61.9,37.4,29.96,South,180,5.4,6.9,40,0.00,,,0.00,WUHU216HW,2013-04-26 01:45:00,
2013-04-25 20:50:00,61.6,37.6,29.96,SSE,158,4.0,6.3,41,0.00,,,0.00,WUHU216HW,2013-04-26 01:50:00,
2013-04-25 20:55:00,61.2,37.3,29.96,South,180,4.5,6.3,41,0.00,,,0.00,WUHU216HW,2013-04-26 01:55:00,
2013-04-25 21:00:00,60.8,36.9,29.96,South,180,2.2,5.4,41,0.00,,,0.00,WUHU216HW,2013-04-26 02:00:00,
2013-04-25 21:05:00,60.7,37.4,29.96,SSW,203,4.7,5.1,42,0.00,,,0.00,WUHU216HW,2013-04-26 02:05:00,
2013-04-25 21:10:00,60.3,37.0,29.96,SSE,158,3.8,6.0,42,0.00,,,0.00,WUHU216HW,2013-04-26 02:10:00,
2013-04-25 21:15:00,60.1,36.9,29.96,SSW,203,4.0,6.0,42,0.00,,,0.00,WUHU216HW,2013-04-26 02:15:00,
2013-04-25 21:20:00,59.9,37.3,29.97,SSW,203,3.4,5.4,43,0.00,,,0.00,WUHU216HW,2013-04-26 02:20:00,
2013-04-25 21:25:00,59.8,37.1,29.97,South,180,2.7,5.4,43,0.00,,,0.00,WUHU216HW,2013-04-26 02:25:00,
2013-04-25 21:30:00,59.6,37.5,29.97,SSE,158,3.4,5.4,44,0.00,,,0.00,WUHU216HW,2013-04-26 02:30:00,
2013-04-25 21:35:00,59.4,37.4,29.97,South,180,1.3,3.4,44,0.00,,,0.00,WUHU216HW,2013-04-26 02:35:00,
2013-04-25 21:40:00,59.0,37.1,29.97,South,180,3.8,4.7,44,0.00,,,0.00,WUHU216HW,2013-04-26 02:40:00,
2013-04-25 21:45:00,58.7,37.3,29.98,South,180,3.1,5.1,45,0.00,,,0.00,WUHU216HW,2013-04-26 02:45:00,
2013-04-25 21:50:00,58.3,37.0,29.98,South,180,1.6,5.1,45,0.00,,,0.00,WUHU216HW,2013-04-26 02:50:00,
2013-04-25 21:55:00,58.0,36.6,29.98,SW,225,1.6,2.7,45,0.00,,,0.00,WUHU216HW,2013-04-26 02:55:00,
2013-04-25 22:00:00,57.6,36.9,29.99,South,180,1.1,3.1,46,0.00,,,0.00,WUHU216HW,2013-04-26 03:00:00,
2013-04-25 22:05:00,57.2,37.2,29.99,SSW,203,3.4,3.4,47,0.00,,,0.00,WUHU216HW,2013-04-26 03:05:00,
2013-04-25 22:10:00,56.9,36.8,29.99,South,180,2.5,3.8,47,0.00,,,0.00,WUHU216HW,2013-04-26 03:10:00,
2013-04-25 22:15:00,56.7,37.2,29.99,South,180,2.2,4.0,48,0.00,,,0.00,WUHU216HW,2013-04-26 03:15:00,
2013-04-25 22:20:00,56.5,37.6,29.99,WSW,248,1.8,4.0,49,0.00,,,0.00,WUHU216HW,2013-04-26 03:20:00,
2013-04-25 22:25:00,56.5,37.0,29.99,South,180,2.7,4.5,48,0.00,,,0.00,WUHU216HW,2013-04-26 03:25:00,
2013-04-25 22:30:00,56.5,37.0,29.99,SSE,158,4.0,4.9,48,0.00,,,0.00,WUHU216HW,2013-04-26 03:30:00,
2013-04-25 22:35:00,56.5,37.6,29.99,SSW,203,3.1,5.1,49,0.00,,,0.00,WUHU216HW,2013-04-26 03:35:00,
2013-04-25 22:40:00,56.3,37.5,29.99,SSE,158,3.4,5.1,49,0.00,,,0.00,WUHU216HW,2013-04-26 03:40:00,
2013-04-25 22:45:00,56.3,37.5,29.99,SSW,203,3.4,5.8,49,0.00,,,0.00,WUHU216HW,2013-04-26 03:45:00,
2013-04-25 22:50:00,56.3,37.5,29.99,SW,225,3.6,5.8,49,0.00,,,0.00,WUHU216HW,2013-04-26 03:50:00,
2013-04-25 22:55:00,56.3,37.5,29.99,WSW,248,1.3,4.9,49,0.00,,,0.00,WUHU216HW,2013-04-26 03:55:00,
2013-04-25 23:00:00,56.3,37.5,29.99,WNW,293,3.1,5.8,49,0.00,,,0.00,WUHU216HW,2013-04-26 04:00:00,
2013-04-25 23:01:00,56.3,37.5,29.99,SSW,203,3.4,5.8,49,0.00,,,0.00,WUHU216HW,2013-04-26 04:01:00,
2013-04-25 23:06:00,56.2,37.3,29.99,SW,225,5.6,6.3,49,0.00,,,0.00,WUHU216HW,2013-04-26 04:06:00,
2013-04-25 23:11:00,56.3,38.0,29.99,South,180,3.6,6.3,50,0.00,,,0.00,WUHU216HW,2013-04-26 04:11:00,
2013-04-25 23:16:00,56.2,37.8,29.99,SE,135,3.1,6.3,50,0.00,,,0.00,WUHU216HW,2013-04-26 04:16:00,
2013-04-25 23:21:00,56.0,37.6,29.99,SSE,158,3.6,6.3,50,0.00,,,0.00,WUHU216HW,2013-04-26 04:21:00,
2013-04-25 23:26:00,55.8,37.4,29.99,SSE,158,3.4,5.6,50,0.00,,,0.00,WUHU216HW,2013-04-26 04:26:00,
2013-04-25 23:31:00,55.6,37.3,29.99,SSW,203,2.9,6.0,50,0.00,,,0.00,WUHU216HW,2013-04-26 04:31:00,
2013-04-25 23:36:00,55.4,37.1,29.99,SE,135,4.0,6.0,50,0.00,,,0.00,WUHU216HW,2013-04-26 04:36:00,
2013-04-25 23:41:00,55.3,37.4,29.99,NNW,338,2.7,5.8,51,0.00,,,0.00,WUHU216HW,2013-04-26 04:41:00,
2013-04-25 23:46:00,55.1,37.3,29.99,SSE,158,3.8,4.7,51,0.00,,,0.00,WUHU216HW,2013-04-26 04:46:00,
2013-04-25 23:51:00,54.7,36.9,29.99,WNW,293,3.4,5.8,51,0.00,,,0.00,WUHU216HW,2013-04-26 04:51:00,
2013-04-25 23:56:00,54.7,36.9,29.99,SSW,203,3.6,6.3,51,0.00,,,0.00,WUHU216HW,2013-04-26 04:56:00,